Flag for U.S.A. Weather past 2 weeks in Youngstown, Ohio, U.S.A.

Now
85 °F

Partly sunny.


Feels Like: 87 °F
Forecast: 65 / 87 °F
Wind: 9 mph from West

Location: Youngstown-Warren Regional Airport

Current Time: Aug 31, 2015 at 3:52:29 PM

Latest Report: Aug 31, 2015 at 2:51 PM


Visibility: 10 mi

Pressure: 30.06 "Hg

Humidity: 51%

Dew point: 65 °F

Location of YoungstownLocation

Historic Weather in Youngstown — Graph

°F

Youngstown temperature yesterday

Maximum temperature yesterday: 82 °F (at 4:51 PM)
Minimum temperature yesterday: 66 °F (at 12:51 AM)
Average temperature yesterday: 72 °F

Past Weeks' High & Low Weather Summary

 TemperatureHumidityPressure
High88 °F (Aug 17, 3:51 PM)100% (Aug 22, 3:51 AM)30.23 "Hg (Aug 22, 3:51 AM)
Low49 °F (Aug 22, 4:51 AM)38% (Aug 23, 3:51 PM)29.77 "Hg (Aug 20, 3:51 AM)
Average68 °F73%30.04 "Hg
* Reported Aug 16 2:51 PM — Aug 31 2:51 PM, Youngstown, Weather by CustomWeather, © 2015

Note: Actual official high and low records may vary slightly from our data, if they occured in-between our weather recording intervals... More about our weather records

Advertising

Youngstown weather history for previous 24 hours

 ConditionsComfort  
Time TempWeatherWind HumidityBarometerVisibility
2:51 PM
Mon, Aug 31
85 °FPartly sunny.9 mph51%30.06 "Hg10 mi
1:51 PM85 °FPartly sunny.9 mph53%30.07 "Hg10 mi
12:51 PM83 °FPartly sunny.8 mph59%30.09 "Hg10 mi
11:51 AM81 °FScattered clouds.9 mph62%30.10 "Hg10 mi
10:51 AM78 °FPassing clouds.6 mph71%30.10 "Hg10 mi
9:51 AM75 °FPassing clouds.6 mph76%30.09 "Hg10 mi
8:51 AM71 °FScattered clouds.7 mph84%30.09 "Hg10 mi
7:51 AM67 °FScattered clouds.3 mph93%30.09 "Hg9 mi
6:51 AM66 °FFog.No wind90%30.07 "Hg8 mi
5:51 AM66 °FPassing clouds.No wind90%30.05 "Hg10 mi
4:51 AM68 °FPassing clouds.5 mph84%30.04 "Hg10 mi
3:51 AM69 °FPartly cloudy.5 mph81%30.05 "Hg10 mi
2:51 AM69 °FPartly cloudy.5 mph84%30.05 "Hg10 mi
1:51 AM69 °FOvercast.3 mph87%30.06 "Hg10 mi
12:51 AM71 °FPassing clouds.8 mph81%30.06 "Hg10 mi
11:51 PM
Sun, Aug 30
71 °FPassing clouds.6 mph84%30.06 "Hg10 mi
10:51 PM73 °FPassing clouds.5 mph79%30.06 "Hg10 mi
9:51 PM70 °FPartly cloudy.6 mph84%30.06 "Hg8 mi
8:51 PM69 °FScattered clouds.3 mph93%30.06 "Hg10 mi
7:51 PM74 °FBroken clouds.No wind82%30.04 "Hg10 mi
6:51 PM80 °FBroken clouds.5 mph62%30.03 "Hg10 mi
5:51 PM80 °FBroken clouds.5 mph60%30.04 "Hg10 mi
4:51 PM82 °FPartly sunny.8 mph58%30.04 "Hg10 mi
3:51 PM81 °FBroken clouds.5 mph62%30.06 "Hg10 mi
Weather by CustomWeather, © 2015

See weather overviewHow to use our weather pages